Weather History for Decatur, IL

Change the Weather History Date:

Thursday, January 23, 2014

  Actual Average Record
Temperature  
Mean Temperature 2 °F 27 °F  
Max Temperature 6 °F 35 °F - ()
Min Temperature -2 °F 19 °F - ()
Degree Days  
Heating Degree Days 63 38  
Month to date heating degree days 925 869  
Since 1 July heating degree days 3200 3008  
Cooling Degree Days 0 0  
Month to date cooling degree days 0 0  
Year to date cooling degree days 0 0  
Moisture  
Dew Point -8 °F    
Average Humidity 66    
Maximum Humidity 72    
Minimum Humidity 59    
Precipitation  
Precipitation T in 0.04 in - ()
Month to date precipitation 0.71 1.39  
Year to date precipitation 0.71 1.39  
Sea Level Pressure  
Sea Level Pressure 30.58 in    
Wind  
Wind Speed 14 mph (WNW)    
Max Wind Speed 23 mph    
Max Gust Speed 32 mph    
Visibility 9 miles    
Events Snow    
T = Trace of Precipitation, MM = Missing Value Source: NWS Daily Summary

Daily Weather History Graph

Daily Weather History Graph

Search for Another Location

Airport:

Trip Planner

Search our weather history database for the weather conditions in past years. The results will help you decide how hot, cold, wet, or windy it might be!

Date:

Astronomy

Jan. 23, 2014 Rise Set
Actual Time 7:10 AM CST 5:04 PM CST
Civil Twilight 6:41 AM CST 5:33 PM CST
Nautical Twilight 6:08 AM CST 6:06 PM CST
Astronomical Twilight 5:36 AM CST 6:38 PM CST
Moon No Moon Rise 10:46 AM CST (1/23)
Length of Visible Light 10h 51m
Length of Day
9h 53m
Waning Gibbous, 55% of the Moon is Illuminated
Jan 23
Waning Gibbous
Jan 23
Last Quarter
Jan 30
New
Feb 6
First Quarter
Feb 14
Full

Hourly Weather History & Observations

Time (CST) Temp. Windchill Dew Point Humidity Pressure Visibility Wind Dir Wind Speed Gust Speed Precip Events Conditions
12:25 AM 3.2 °F -18.1 °F -5.8 °F 66% 30.29 in 9.0 mi NW 20.7 mph 29.9 mph 0.00 in Snow Light Snow
12:36 AM 3.2 °F -17.6 °F -5.8 °F 66% 30.30 in 9.0 mi NW 19.6 mph 28.8 mph 0.00 in Snow Light Snow
12:54 AM 1.9 °F -16.9 °F -7.1 °F 66% 30.35 in 9.0 mi NW 15.0 mph 26.5 mph 0.00 in Snow Light Snow
1:34 AM 1.4 °F -19.9 °F -5.8 °F 72% 30.33 in 7.0 mi NW 19.6 mph 24.2 mph 0.00 in Snow Light Snow
1:49 AM 1.4 °F -18.8 °F -7.6 °F 66% 30.34 in 9.0 mi NW 17.3 mph - 0.00 in Snow Light Snow
1:54 AM 1.9 °F -18.7 °F -8.0 °F 63% 30.40 in 9.0 mi NW 18.4 mph 28.8 mph 0.00 in Snow Light Snow
2:54 AM -0.0 °F -18.0 °F -9.0 °F 66% 30.43 in 9.0 mi NW 12.7 mph 20.7 mph 0.00 in Snow Light Snow
3:54 AM -0.0 °F -18.7 °F -11.0 °F 60% 30.45 in 9.0 mi WNW 13.8 mph 21.9 mph 0.00 in Snow Light Snow
4:54 AM -0.9 °F -20.6 °F -11.0 °F 62% 30.48 in 9.0 mi NW 15.0 mph 23.0 mph 0.00 in Snow Light Snow
5:54 AM -0.9 °F -21.2 °F -11.0 °F 62% 30.52 in 9.0 mi WNW 16.1 mph - 0.00 in Snow Light Snow
6:54 AM -2.0 °F -21.9 °F -9.9 °F 69% 30.55 in 9.0 mi WNW 15.0 mph - 0.00 in Snow Light Snow
7:54 AM -2.0 °F -22.6 °F -9.9 °F 69% 30.58 in 9.0 mi WNW 16.1 mph 24.2 mph 0.00 in Snow Light Snow
8:54 AM -0.9 °F -22.4 °F -11.0 °F 62% 30.61 in 9.0 mi WNW 18.4 mph 25.3 mph 0.00 in Snow Light Snow
9:54 AM -0.0 °F -21.8 °F -9.9 °F 63% 30.64 in 9.0 mi NW 19.6 mph 25.3 mph 0.00 in Snow Light Snow
10:54 AM 1.0 °F -18.7 °F -9.0 °F 63% 30.67 in 9.0 mi WNW 16.1 mph 24.2 mph 0.00 in Snow Light Snow
11:26 AM 1.4 °F -16.9 °F -7.6 °F 66% 30.62 in 9.0 mi WNW 13.8 mph - 0.00 in Snow Light Snow
11:54 AM 3.0 °F -13.3 °F -7.1 °F 63% 30.67 in 9.0 mi WNW 11.5 mph 21.9 mph 0.00 in Snow Light Snow
12:01 PM 3.2 °F -16.5 °F -7.6 °F 61% 30.62 in 9.0 mi WNW 17.3 mph 21.9 mph 0.00 in Snow Light Snow
12:19 PM 3.2 °F -14.6 °F -7.6 °F 61% 30.61 in 9.0 mi WNW 13.8 mph 23.0 mph 0.00 in Snow Light Snow
12:54 PM 3.9 °F -15.6 °F -7.1 °F 60% 30.66 in 9.0 mi WNW 17.3 mph 24.2 mph 0.00 in Snow Light Snow
1:54 PM 5.0 °F -14.2 °F -6.0 °F 61% 30.66 in 9.0 mi WNW 17.3 mph 25.3 mph 0.00 in Snow Light Snow
2:54 PM 6.1 °F -13.3 °F -5.1 °F 60% 30.68 in 9.0 mi WNW 18.4 mph 25.3 mph 0.00 in Snow Light Snow
3:54 PM 6.1 °F -12.8 °F -5.1 °F 60% 30.70 in 10.0 mi WNW 17.3 mph 23.0 mph 0.00 in   Clear
4:54 PM 5.0 °F -14.2 °F -6.0 °F 61% 30.71 in 10.0 mi WNW 17.3 mph - N/A   Clear
5:54 PM 3.9 °F -10.4 °F -7.1 °F 60% 30.71 in 10.0 mi WNW 9.2 mph - N/A   Clear
6:54 PM 3.0 °F -12.5 °F -6.0 °F 66% 30.73 in 10.0 mi WNW 10.4 mph - N/A   Clear
7:54 PM 3.0 °F -13.3 °F -7.1 °F 63% 30.73 in 10.0 mi WNW 11.5 mph 20.7 mph N/A   Clear
8:54 PM 1.9 °F -15.5 °F -8.0 °F 63% 30.73 in 10.0 mi WNW 12.7 mph - N/A   Clear
9:54 PM 1.9 °F -14.7 °F -8.0 °F 63% 30.73 in 10.0 mi WNW 11.5 mph - N/A   Clear
10:54 PM 1.0 °F -11.7 °F -8.0 °F 66% 30.71 in 10.0 mi WNW 6.9 mph - N/A   Clear
11:54 PM -0.0 °F -9.9 °F -9.0 °F 66% 30.70 in 10.0 mi West 4.6 mph - N/A   Clear